Weather observations for the past three days for
CARRINGTON
Metric (Imperial)
Date Time (cdt) Wind (kph) Vis. (km) Weather Sky Cond. Temperature (ºC) Relative Humidity Wind Chill (°C) Heat Index (°C) Pressure Precipitation (cm)
Air Dwpt 6 hour altimeter (cm) sea level (mb) 1 hr 3 hr 6 hr
Max. Min.
08 06:35 Calm 1.21 Sky Obscured with Haze VV005 2 -3 70% 75.46 0.0
08 06:15 Calm 16.09 Partly Cloudy SCT110 2 -4 65% 75.46 0.0
08 05:55 Calm 16.09 Overcast OVC120 4 -4 56% 75.49 0.0
08 05:35 Calm 16.09 Overcast FEW080 OVC110 2 -5 60% 75.51 0.0
08 05:15 Calm 16.09 Partly Cloudy SCT080 2 -5 60% 75.51 0.0
08 04:55 Calm 16.09 Fair CLR 2 -4 65% 75.51 0.0
08 04:35 Calm 16.09 Fair CLR 2 -5 60% 75.51 0.0
08 04:15 Calm 16.09 A Few Clouds FEW075 4 -4 56% 75.54 0.0
08 03:55 Calm 16.09 A Few Clouds FEW075 4 -4 56% 75.54 0.0
08 03:35 Calm 16.09 A Few Clouds FEW080 5 -4 53% 75.54 0.0
08 03:15 Calm 16.09 Mostly Cloudy BKN080 6 -3 53% 75.54 0.0
08 02:55 Calm 16.09 Overcast OVC080 6 -2 57% 75.57 0.0
08 02:35 Calm 16.09 Overcast OVC090 6 -3 53% 75.59 0.0
08 02:15 Calm 16.09 Overcast OVC085 6 -3 53% 75.59 0.0
08 01:55 Calm 16.09 Mostly Cloudy FEW075 BKN090 5 -1 66% 75.62 0.0
08 01:35 Calm 16.09 A Few Clouds FEW038 FEW070 FEW080 5 -2 61% 75.62 0.0
08 01:15 Calm 16.09 Mostly Cloudy FEW038 FEW065 BKN085 5 -3 57% 75.62 0.0
08 00:55 Calm 16.09 Mostly Cloudy BKN080 BKN120 5 -3 57% 75.62 0.0
08 00:35 Calm 16.09 Mostly Cloudy BKN085 4 -5 52% 75.64 0.0
08 00:15 Calm 16.09 A Few Clouds FEW090 7 -7 37% 75.64 0.0
07 23:55 Calm 16.09 Fair CLR 7 -7 37% 75.64 0.0
07 23:35 Calm 16.09 Fair CLR 8 -7 34% 75.67 0.0
07 23:15 Calm 16.09 Fair CLR 8 -6 37% 75.67 0.0
07 22:55 Calm 16.09 Fair CLR 8 -7 34% 75.67 0.0
07 22:35 Calm 16.09 Fair CLR 9 -7 32% 75.67 0.0
07 22:15 Calm 16.09 Fair CLR 9 -7 32% 75.67 0.0
07 21:55 Calm 16.09 Fair CLR 9 -6 34% 75.67 0.0
07 21:35 Calm 16.09 Fair CLR 9 -6 34% 75.64 0.0
07 21:15 Calm 16.09 Fair CLR 10 -6 32% 75.62 0.0
07 20:55 Calm 16.09 Fair CLR 11 -7 28% 75.62 0.0
07 20:35 Calm 16.09 Fair CLR 12 -7 26% 75.59 0.0
07 20:15 Calm 4.02 Fair with Haze CLR 13 -7 24% 75.59 0.0
07 19:55 Calm 16.09 Fair CLR 14 -9 20% 75.59 0.0
07 19:35 Calm 4.83 Fair with Haze CLR 15 -8 20% 75.57 0.0
07 19:15 Calm 9.66 Fair with Haze CLR 16 -9 17% 75.59 0.0
07 18:55 Calm 16.09 Fair CLR 16 -9 17% 75.59 0.0
07 18:35 Calm 16.09 Fair CLR 16 -10 16% 75.59 0.0
07 18:15 Calm 16.09 Fair CLR 16 -9 17% 75.59 0.0
07 17:55 Calm 16.09 Fair CLR 16 -9 17% 75.59 0.0
07 17:35 Calm 16.09 Fair CLR 16 -9 17% 75.59 0.0
07 17:15 Calm 16.09 Fair CLR 17 -9 16% 75.59 0.0
07 16:55 Calm 16.09 Fair CLR 16 -10 16% 75.62 0.0
07 16:35 Calm 16.09 Fair CLR 16 -10 16% 75.62 0.0
07 16:15 Calm 16.09 Fair CLR 16 -10 16% 75.64 0.0
07 15:15 Calm 16.09 Fair CLR 15 -9 18% 75.67 0.0
07 14:55 Calm 16.09 Fair CLR 15 -8 20% 75.67 0.0
07 14:35 Calm 16.09 Fair CLR 15 -8 20% 75.69 0.0
07 14:15 Calm 16.09 Fair CLR 15 -8 20% 75.69 0.0
07 13:55 Calm 16.09 Fair CLR 14 -8 21% 75.69 0.0
07 13:35 Calm 16.09 Fair CLR 14 -7 23% 75.72 0.0
07 13:15 Calm 16.09 Fair CLR 14 -7 23% 75.74 0.0
07 12:55 Calm 16.09 Fair CLR 13 -8 23% 75.74 0.0
07 12:35 Calm 16.09 Fair CLR 13 -7 24% 75.77 0.0
07 12:15 Calm 16.09 Fair CLR 13 -7 24% 75.79 0.0
07 11:55 Calm 16.09 Fair CLR 12 -7 26% 75.79 0.0
07 11:35 Calm 16.09 Fair CLR 12 -7 26% 75.79 0.0
07 11:15 Calm 16.09 Fair CLR 12 -7 26% 75.82 0.0
07 10:55 Calm 16.09 Fair CLR 12 -6 28% 75.84 0.0
07 10:35 Calm 16.09 Fair CLR 11 -7 28% 75.84 0.0
07 10:15 Calm 16.09 Fair CLR 11 -5 32% 75.84 0.0
07 09:55 Calm 16.09 Fair CLR 10 -4 37% 75.84 0.0
07 09:35 Calm 16.09 Fair CLR 9 -2 46% 75.84 0.0
07 09:15 Calm 16.09 Fair CLR 8 -2 50% 75.84 0.0
07 08:55 Calm 16.09 Fair CLR 7 -1 57% 75.84 0.0
07 08:35 Calm 16.09 Fair CLR 5 0 70% 75.84 0.0
07 08:15 Calm 16.09 Fair CLR 4 0 75% 75.84 0.0
07 07:55 Calm 16.09 Fair CLR 3 0 81% 75.84 0.0
07 07:35 Calm 16.09 Fair CLR 2 -1 81% 75.84 0.0
07 07:15 Calm 16.09 Fair CLR 1 -1 87% 75.82 0.0
07 06:55 Calm 0.40 Fog VV002 0 -1 93% 75.82 0.0
07 06:35 Calm 4.83 Fog/Mist CLR -1 -1 100% 75.82 0.0
07 06:15 Calm 16.09 Fair CLR -1 -1 100% 75.82 0.0
07 05:55 Calm 16.09 Fair CLR -2 -2 100% 75.82 0.0
07 05:35 Calm 16.09 Fair CLR -2 -2 100% 75.82 0.0
07 05:15 Calm 16.09 Fair CLR -1 -1 100% 75.82 0.0
07 04:55 Calm 16.09 Fair CLR -1 -3 86% 75.82 0.0
07 04:35 Calm 16.09 Fair CLR -1 -3 86% 75.82 0.0
07 04:15 Calm 16.09 Fair CLR 0 -3 80% 75.82 0.0
07 03:55 Calm 16.09 Fair CLR 0 -3 80% 75.82 0.0
07 03:35 Calm 16.09 Fair CLR 0 -4 75% 75.82 0.0
07 03:15 Calm 16.09 Fair CLR 0 -4 75% 75.82 0.0
07 02:55 Calm 16.09 Fair CLR 0 -4 75% 75.84 0.0
07 02:35 Calm 16.09 Fair CLR -1 -3 86% 75.84 0.0
07 02:15 Calm 16.09 Fair CLR -1 -3 86% 75.84 0.0
07 01:55 Calm 16.09 Fair CLR -2 -4 86% 75.84 0.0
07 01:35 Calm 16.09 Fair CLR -2 -4 86% 75.84 0.0
07 01:15 Calm 16.09 Fair CLR -1 -4 80% 75.84 0.0
07 00:55 Calm 16.09 Fair CLR 0 -3 80% 75.84 0.0
07 00:35 Calm 16.09 Fair CLR 0 -4 75% 75.84 0.0
07 00:15 Calm 16.09 Fair CLR 3 -6 52% 75.84 0.0
06 23:55 Calm 16.09 Fair CLR 2 -4 65% 75.87 0.0
06 23:35 Calm 16.09 Fair CLR 3 -4 60% 75.87 0.0
06 23:15 Calm 16.09 Fair CLR 4 -4 56% 75.9 0.0
06 22:55 Calm 16.09 A Few Clouds FEW065 FEW075 4 -4 56% 75.9 0.0
06 22:35 Calm 16.09 Mostly Cloudy FEW055 SCT065 BKN095 4 -4 56% 75.92 0.0
06 22:15 Calm 16.09 Mostly Cloudy BKN060 BKN070 6 -5 46% 75.92 0.0
06 21:55 Calm 16.09 Overcast BKN060 OVC075 6 -6 42% 75.95 0.0
06 21:35 Calm 16.09 Mostly Cloudy FEW050 BKN070 BKN085 6 -5 46% 75.95 0.0
06 21:15 Calm 16.09 Mostly Cloudy FEW039 FEW049 BKN060 7 -6 39% 75.95 0.0
06 20:55 Calm 16.09 Mostly Cloudy BKN065 BKN070 7 -6 39% 75.95 0.0
06 20:35 Calm 16.09 Mostly Cloudy BKN070 BKN095 8 -7 34% 75.95 0.0
06 20:15 Calm 16.09 Mostly Cloudy SCT070 BKN080 BKN095 8 -7 34% 75.95 0.0
06 19:55 Calm 16.09 Mostly Cloudy BKN070 BKN080 BKN095 8 -7 34% 75.95 0.0
06 19:35 Calm 16.09 Overcast SCT070 BKN080 OVC090 9 -8 29% 75.97 0.0
06 19:15 Calm 16.09 Overcast SCT070 OVC080 9 -8 29% 75.97 0.0
06 18:55 Calm 16.09 Overcast BKN070 OVC080 9 -8 29% 75.97 0.0
06 18:35 Calm 16.09 Overcast BKN065 OVC075 9 -8 29% 75.97 0.0
06 18:15 Calm 16.09 Mostly Cloudy BKN065 BKN075 9 -7 32% 76 0.0
06 17:55 Calm 16.09 Overcast OVC070 9 -7 32% 76 0.0
06 17:35 Calm 16.09 Mostly Cloudy BKN065 9 -8 29% 76 0.0
06 17:15 Calm 16.09 A Few Clouds FEW065 9 -7 32% 76.02 0.0
06 16:55 Calm 16.09 Partly Cloudy SCT060 9 -7 32% 76.05 0.0
06 16:35 Calm 16.09 A Few Clouds FEW060 10 -7 30% 76.07 0.0
06 16:15 Calm 16.09 Mostly Cloudy BKN060 BKN070 9 -6 34% 76.07 0.0
06 15:55 Calm 16.09 Overcast SCT001 OVC060 8 -8 32% 76.1 0.0
06 15:35 Calm 16.09 Overcast OVC001 8 -8 32% 76.1 0.0
06 15:15 Calm 16.09 Overcast OVC001 8 -8 32% 76.12 0.0
06 14:55 Calm 16.09 Overcast OVC001 7 -7 37% 76.15 0.0
06 14:35 Calm 16.09 Overcast OVC001 7 -7 37% 76.17 0.0
06 14:15 Calm 16.09 Overcast OVC001 7 -7 37% 76.17 0.0
06 13:55 Calm 16.09 Overcast OVC001 6 -7 39% 76.2 0.0
06 13:35 Calm 16.09 Overcast OVC001 5 -7 42% 76.23 0.0
06 13:15 Calm 16.09 Overcast OVC001 5 -7 42% 76.25 0.0
06 12:55 Calm 16.09 Overcast OVC001 5 -7 42% 76.25 0.0
06 12:35 Calm 16.09 Overcast OVC001 5 -7 42% 76.25 0.0
06 12:15 Calm 16.09 Overcast OVC001 5 -6 45% 76.28 0.0
06 11:55 Calm 16.09 Overcast OVC001 4 -6 48% 76.28 0.0
06 11:35 Calm 16.09 Overcast OVC001 4 -7 45% 76.28 0.0
06 11:15 Calm 16.09 Overcast OVC001 4 -6 48% 76.3 0.0
06 10:55 Calm 16.09 Overcast OVC001 4 -7 45% 76.3 0.0
06 10:35 Calm 16.09 Overcast OVC001 3 -7 48% 76.3 0.0
06 10:15 Calm 16.09 Overcast OVC001 3 -6 52% 76.3 0.0
06 09:55 Calm 16.09 Overcast OVC001 3 -5 56% 76.3 0.0
06 09:35 Calm 16.09 Overcast OVC001 3 -5 56% 76.3 0.0
06 09:15 Calm 16.09 Overcast OVC001 2 -4 65% 76.3 0.0
06 08:55 Calm 16.09 Overcast OVC001 1 -4 70% 76.33 0.0
06 08:35 Calm 16.09 Overcast OVC001 1 -4 70% 76.3 0.0
06 08:15 Calm 16.09 Overcast OVC001 1 -4 70% 76.33 0.0
06 07:55 Calm 16.09 Overcast OVC001 0 -5 69% 76.3 0.0
06 07:35 Calm 16.09 Overcast OVC001 0 -4 75% 76.3 0.0
06 07:15 Calm 16.09 Overcast OVC001 0 -4 75% 76.3 0.0
06 06:55 Calm 16.09 Overcast OVC001 0 -4 75% 76.28 0.0
06 06:35 Calm 16.09 Overcast OVC001 0 -4 75% 76.28 0.0
06 06:15 Calm 16.09 Overcast OVC001 0 -4 75% 76.28 0.0
06 05:55 Calm 16.09 Overcast OVC001 0 -4 75% 76.25 0.0
06 05:35 Calm 16.09 Overcast OVC001 0 -4 75% 76.25 0.0
06 05:15 Calm 16.09 Overcast OVC001 0 -4 75% 76.25 0.0
06 04:55 Calm 16.09 Overcast OVC001 0 -4 75% 76.25 0.0
06 04:35 Calm 16.09 Overcast OVC001 0 -4 75% 76.25 0.0
06 04:15 Calm 16.09 Overcast OVC001 0 -4 75% 76.25 0.0
06 03:55 Calm 16.09 Overcast OVC001 0 -4 75% 76.23 0.0
06 03:35 Calm 16.09 Overcast OVC001 0 -5 69% 76.23 0.0
06 03:15 Calm 16.09 Overcast OVC001 0 -4 75% 76.23 0.0
06 02:55 Calm 16.09 Overcast OVC001 0 -4 75% 76.23 0.0
06 02:35 Calm 16.09 Overcast OVC001 0 -4 75% 76.23 0.0
06 02:15 Calm 16.09 Overcast OVC001 0 -4 75% 76.23 0.0
06 01:55 Calm 16.09 Overcast OVC001 0 -5 69% 76.23 0.0
06 01:35 Calm 16.09 Overcast OVC001 0 -5 69% 76.23 0.0
06 00:55 Calm 16.09 Overcast OVC001 1 -5 65% 76.23 0.0
06 00:35 Calm 16.09 Overcast OVC001 1 -4 70% 76.23 0.0
06 00:15 Calm 16.09 Overcast OVC001 1 -4 70% 76.23 0.0
05 23:55 Calm 16.09 Overcast OVC001 1 -5 65% 76.23 0.0
05 23:35 Calm 16.09 Overcast OVC001 1 -5 65% 76.23 0.0
05 23:15 Calm 16.09 Overcast OVC001 1 -6 60% 76.23 0.0
05 22:55 Calm 16.09 Overcast OVC001 2 -6 56% 76.23 0.0
05 22:35 Calm 16.09 Overcast OVC001 2 -6 56% 76.2 0.0
05 22:15 Calm 16.09 Overcast OVC001 2 -6 56% 76.2 0.0
05 21:55 Calm 16.09 Overcast OVC001 2 -6 56% 76.2 0.0
05 21:35 Calm 16.09 Overcast OVC001 2 -5 60% 76.17 0.0
05 21:15 Calm 16.09 Overcast OVC001 2 -6 56% 76.15 0.0
05 20:55 Calm 16.09 Overcast OVC001 2 -6 56% 76.12 0.0
05 20:35 Calm 16.09 Overcast OVC001 2 -6 56% 76.12 0.0
05 20:15 Calm 16.09 Overcast OVC001 3 -6 52% 76.12 0.0
05 19:55 Calm 16.09 Overcast OVC001 3 -6 52% 76.12 0.0
05 19:35 Calm 16.09 Overcast OVC001 3 -6 52% 76.1 0.0
05 19:15 Calm 16.09 Overcast OVC001 3 -6 52% 76.1 0.0
05 18:55 Calm 16.09 Overcast OVC001 3 -6 52% 76.1 0.0
05 18:35 Calm 16.09 Overcast OVC001 3 -7 48% 76.1 0.0
05 18:15 Calm 16.09 Overcast OVC001 4 -6 48% 76.1 0.0
05 17:55 Calm 16.09 Overcast OVC001 4 -6 48% 76.07 0.0
05 17:35 Calm 16.09 Overcast OVC001 4 -6 48% 76.07 0.0
05 17:15 Calm 16.09 Overcast OVC001 4 -7 45% 76.07 0.0
05 16:55 Calm 16.09 Overcast OVC001 4 -7 45% 76.07 0.0
05 16:35 Calm 16.09 Overcast OVC001 4 -7 45% 76.07 0.0
05 16:15 Calm 16.09 Overcast OVC001 4 -6 48% 76.05 0.0
05 15:55 Calm 16.09 Overcast OVC001 4 -7 45% 76.05 0.0
05 15:35 Calm 16.09 Overcast OVC001 4 -6 48% 76.05 0.0
05 15:15 Calm 16.09 Overcast OVC001 4 -6 48% 76.05 0.0
05 14:55 Calm 16.09 Overcast OVC001 4 -6 48% 76.05 0.0
05 14:35 Calm 16.09 Overcast OVC001 4 -6 48% 76.05 0.0
05 14:15 Calm 16.09 Overcast OVC001 4 -6 48% 76.02 0.0
05 13:55 Calm 16.09 Overcast OVC001 4 -6 48% 76.02 0.0
05 13:35 Calm 16.09 Overcast OVC001 4 -6 48% 76.02 0.0
05 13:15 Calm 16.09 Overcast OVC001 4 -6 48% 76.02 0.0
05 12:55 Calm 16.09 Overcast OVC001 4 -7 45% 76 0.0
05 12:35 Calm 16.09 Overcast OVC001 4 -7 45% 76 0.0
05 12:15 Calm 16.09 Overcast OVC001 4 -6 48% 76 0.0
05 11:55 Calm 16.09 Overcast OVC001 4 -6 48% 75.97 0.0
05 11:35 Calm 16.09 Overcast OVC001 4 -7 45% 75.95 0.0
05 11:15 Calm 16.09 Overcast OVC001 4 -5 52% 75.95 0.0
05 10:55 Calm 16.09 Overcast OVC001 4 -5 52% 75.95 0.0
05 10:35 Calm 14.48 Overcast OVC001 3 -5 56% 75.95 0.0
05 10:15 Calm 16.09 Overcast OVC001 4 -6 48% 75.95 0.0
05 09:55 Calm 16.09 Overcast OVC001 3 -5 56% 75.95 0.0
05 09:35 Calm 16.09 Overcast OVC001 3 -5 56% 75.95 0.0
05 09:15 Calm 16.09 Overcast OVC001 3 -4 60% 75.92 0.0
05 08:55 Calm 16.09 Overcast OVC001 2 -4 65% 75.92 0.0
05 08:35 Calm 16.09 Overcast OVC001 2 -3 70% 75.9 0.0
05 08:15 Calm 16.09 Overcast OVC001 2 -4 65% 75.9 0.0
05 07:55 Calm 16.09 Overcast OVC001 1 -5 65% 75.84 0.0
05 07:35 Calm 16.09 Overcast OVC001 1 -4 70% 75.84 0.0
05 07:15 Calm 16.09 Overcast OVC001 0 -5 69% 75.82 0.0
Date Time (cdt) Wind (kph) Vis. (km) Weather Sky Cond. Air Dwpt Max. Min. Relative Humidity Wind Chill (°C) Heat Index (°C) altimeter (cm) sea level (mb) 1 hr 3 hr 6 hr
6 hour
Temperature (ºC) Pressure Precipitation (cm)